Location: Poughquag
(41.6090°N, 73.6820°W)
Time: 14:49:44
(UTC-04:00)

Altair - Pass Details

Date: 02 June 2020
Orbit: 1501 x 1683 km, 47.2° (Epoch: 05 July)

Event Time Altitude Azimuth Distance (km) Brightness Sun altitude
Rises 21:24:27 0° 220° (SW) 4,777 10.1 -9.9°
Reaches altitude 10° 21:27:33 10° 217° (SW) 3,819 9.5 -10.3°
Maximum altitude 21:37:04 59° 141° (SE) 1,868 7.6 -11.6°
Drops below altitude 10° 21:46:53 10° 66° (ENE) 3,940 9.5 -12.9°
Sets 21:50:08 0° 63° (ENE) 4,938 10.0 -13.3°
